sat.trackr.live / text

‹ back to catalog

STARLINK-11349 [DTC]

NORAD 61544 · 2024-184N

PAYLOAD ACTIVE UNKNOWN

§ Identity

Operator
Country
US
Launch date
2024-10-15
Launch site
AFWTR
Launch vehicle
Mass (kg)
RCS (m²)

Purposes: comms

External: N2YO · Heavens-Above · Gunter

§ Orbital elements

Epoch: 2026-09-21T12:36:44.226432Z

Period
91.74 min
Inclination
53.1591°
Eccentricity
0.0001359
Mean motion
15.69695619 rev/d
Perigee alt
358.9 km
Apogee alt
360.7 km
Semi-major
6,737.9 km
B*
1.4898e-6
RAAN
351.0027°
Arg perigee
89.9758°
Mean anomaly
270.1416°
Rev number
11,117

§ Raw data

STARLINK-11349 [DTC]1 61544U 24184N   26264.52551188 -.00000409  00000+0  14898-5 0  99922 61544  53.1591 351.0027 0001359  89.9758 270.1416 15.69695619111177

JSON: /api/v1/satellites/61544 · /tle

For live sub-satellite position, see the globe view (requires WebGL).

§ Visibility from observer

Set your observer location to see the next 7 days of passes ≥ 10°. The values pass through the URL so the page stays shareable.

No JS? Fill the form by hand. The geolocation button needs JavaScript.